Weather History for KDRM - June, 2013

Change the Weather History Date:

Wednesday, June 19, 2013

  Actual Average (KCIU) Record (KCIU)
Temperature  
Mean Temperature 54 °F -  
Max Temperature 69 °F 71 °F 83 °F (1991)
Min Temperature 40 °F 45 °F 35 °F (1990)
Degree Days  
Heating Degree Days 10    
Growing Degree Days 4 (Base 50)    
Moisture  
Dew Point 44 °F    
Average Humidity 65    
Maximum Humidity 100    
Minimum Humidity 36    
Precipitation  
Precipitation 0.00 in - - ()
Sea Level Pressure  
Sea Level Pressure 30.14 in    
Wind  
Wind Speed 2 mph (SSW)    
Max Wind Speed 9 mph    
Max Gust Speed -    
Visibility 10 miles    
Events      
Averages and records for this station are not official NWS values.
T = Trace of Precipitation, MM = Missing Value Source: NWS Daily Summary

Daily Weather History Graph

Daily Weather History Graph

Search for Another Location

Airport or City:

Trip Planner

Search our weather history database for the weather conditions in past years. The results will help you decide how hot, cold, wet, or windy it might be!

Date:

Astronomy

Jun. 19, 2013 Rise Set
Actual Time 5:43 AM EDT 9:29 PM EDT
Civil Twilight 5:05 AM EDT 10:07 PM EDT
Nautical Twilight 4:13 AM EDT 10:59 PM EDT
Astronomical Twilight 3:00 AM EDT 12:12 AM EDT
Moon 5:11 PM EDT (6/19) 2:39 AM EDT (6/19)
Length of Visible Light 17h 02m
Length of Day
15h 45m
Waxing Gibbous, 80% of the Moon is Illuminated
Jun 19
Waxing Gibbous
Jun 23
Full
Jun 30
Last Quarter
Jul 8
New
Jul 15
First Quarter

Hourly Weather History & Observations

Time (EDT) Temp. Dew Point Humidity Pressure Visibility Wind Dir Wind Speed Gust Speed Precip Events Conditions
12:16 AM 52.9 °F 44.1 °F 72% 30.10 in 10.0 mi Calm Calm - N/A   Clear
12:35 AM 52.3 °F 44.6 °F 75% 30.10 in 10.0 mi Calm Calm - N/A   Clear
12:56 AM 50.9 °F 44.6 °F 79% 30.11 in 10.0 mi Calm Calm - N/A   Clear
1:16 AM 49.1 °F 44.2 °F 83% 30.11 in 10.0 mi Calm Calm - N/A   Clear
1:36 AM 47.7 °F 45.0 °F 90% 30.11 in 10.0 mi Calm Calm - N/A   Clear
1:56 AM 47.8 °F 44.2 °F 87% 30.11 in 10.0 mi Calm Calm - N/A   Clear
2:16 AM 47.1 °F 43.9 °F 88% 30.11 in 10.0 mi Calm Calm - N/A   Clear
2:36 AM 45.9 °F 43.3 °F 91% 30.12 in 10.0 mi Calm Calm - N/A   Clear
2:56 AM 45.0 °F 43.7 °F 95% 30.12 in 10.0 mi Calm Calm - N/A   Clear
3:16 AM 43.7 °F 43.0 °F 97% 30.12 in 10.0 mi Calm Calm - N/A   Clear
3:36 AM 44.1 °F 43.7 °F 99% 30.11 in 10.0 mi Calm Calm - N/A   Clear
3:56 AM 42.4 °F 42.3 °F 99% 30.12 in 10.0 mi Calm Calm - N/A   Clear
4:16 AM 41.5 °F 41.5 °F 100% 30.13 in 10.0 mi Calm Calm - N/A   Clear
4:36 AM 42.4 °F 42.4 °F 100% 30.13 in 10.0 mi Calm Calm - N/A   Clear
4:56 AM 41.5 °F 41.5 °F 100% 30.14 in 10.0 mi Calm Calm - N/A   Clear
5:16 AM 41.0 °F 41.0 °F 100% 30.14 in 10.0 mi Calm Calm - N/A   Clear
5:36 AM 40.8 °F 40.8 °F 100% 30.15 in 10.0 mi Calm Calm - N/A   Clear
5:56 AM 41.2 °F 41.2 °F 100% 30.15 in 10.0 mi Calm Calm - N/A   Clear
6:16 AM 40.5 °F 40.5 °F 100% 30.16 in 10.0 mi Calm Calm - N/A   Clear
6:36 AM 41.7 °F 41.7 °F 100% 30.17 in 10.0 mi Calm Calm - N/A   Clear
6:56 AM 43.3 °F 43.3 °F 100% 30.17 in 10.0 mi Calm Calm - N/A   Clear
7:16 AM 46.2 °F 45.9 °F 99% 30.18 in 10.0 mi Calm Calm - N/A   Clear
7:36 AM 50.2 °F 49.6 °F 98% 30.18 in 10.0 mi Calm Calm - N/A   Clear
7:56 AM 54.1 °F 50.5 °F 88% 30.18 in 10.0 mi Calm Calm - N/A   Clear
8:16 AM 56.5 °F 48.0 °F 73% 30.18 in 10.0 mi Calm Calm - N/A   Clear
8:36 AM 58.1 °F 48.7 °F 71% 30.18 in 10.0 mi Calm Calm - N/A   Clear
8:56 AM 59.7 °F 46.4 °F 61% 30.19 in 10.0 mi SW 4.6 mph - N/A   Clear
9:16 AM 59.2 °F 47.5 °F 65% 30.19 in 10.0 mi Calm Calm - N/A   Clear
9:36 AM 59.7 °F 46.2 °F 61% 30.19 in 10.0 mi Calm Calm - N/A   Clear
9:56 AM 61.5 °F 46.0 °F 57% 30.19 in 10.0 mi Calm Calm - N/A   Clear
10:16 AM 63.0 °F 45.0 °F 52% 30.19 in 10.0 mi WSW 3.5 mph - N/A   Clear
10:36 AM 63.5 °F 43.9 °F 49% 30.19 in 10.0 mi WSW 5.8 mph - N/A   Clear
10:56 AM 63.3 °F 44.8 °F 51% 30.18 in 10.0 mi WSW 4.6 mph - N/A   Clear
11:16 AM 64.4 °F 43.9 °F 47% 30.18 in 10.0 mi WSW 4.6 mph - N/A   Clear
11:36 AM 65.3 °F 43.9 °F 46% 30.18 in 10.0 mi Calm Calm - N/A   Clear
11:56 AM 66.0 °F 42.8 °F 43% 30.18 in 10.0 mi SW 4.6 mph - N/A   Clear
12:16 PM 66.4 °F 40.8 °F 39% 30.18 in 10.0 mi WSW 8.1 mph - N/A   Clear
12:36 PM 67.3 °F 41.9 °F 40% 30.17 in 10.0 mi SW 8.1 mph - N/A   Clear
12:56 PM 67.3 °F 42.1 °F 40% 30.16 in 10.0 mi WSW 9.2 mph - N/A   Clear
1:16 PM 68.2 °F 43.5 °F 41% 30.16 in 10.0 mi WSW 8.1 mph - N/A   Clear
1:36 PM 67.5 °F 41.7 °F 39% 30.16 in 10.0 mi WSW 8.1 mph - N/A   Clear
1:56 PM 68.0 °F 41.9 °F 39% 30.15 in 10.0 mi SW 6.9 mph - N/A   Clear
2:16 PM 67.8 °F 42.4 °F 40% 30.15 in 10.0 mi SW 9.2 mph - N/A   Clear
2:36 PM 68.5 °F 42.8 °F 39% 30.15 in 10.0 mi WSW 5.8 mph - N/A   Clear
2:56 PM 68.9 °F 40.8 °F 36% 30.14 in 10.0 mi West 3.5 mph - N/A   Clear
3:15 PM 69.8 °F 43.3 °F 38% 30.14 in 10.0 mi WSW 5.8 mph - N/A   Clear
3:36 PM 68.4 °F 44.8 °F 43% 30.14 in 10.0 mi SW 5.8 mph - N/A   Clear
3:56 PM 68.4 °F 46.2 °F 45% 30.13 in 10.0 mi SW 4.6 mph - N/A   Clear
4:16 PM 68.5 °F 48.6 °F 49% 30.13 in 10.0 mi SSW 6.9 mph - N/A   Clear
4:36 PM 68.4 °F 49.3 °F 50% 30.13 in 10.0 mi South 5.8 mph - N/A   Clear
4:56 PM 66.9 °F 48.6 °F 52% 30.13 in 10.0 mi South 6.9 mph - N/A   Clear
5:16 PM 64.8 °F 46.8 °F 52% 30.13 in 10.0 mi South 8.1 mph - N/A   Clear
5:36 PM 64.0 °F 45.9 °F 52% 30.13 in 10.0 mi SSE 8.1 mph - N/A   Clear
5:56 PM 63.3 °F 44.4 °F 50% 30.12 in 10.0 mi SSE 6.9 mph - N/A   Clear
6:16 PM 63.0 °F 45.9 °F 54% 30.12 in 10.0 mi South 8.1 mph - N/A   Clear
6:36 PM 63.5 °F 44.6 °F 50% 30.13 in 10.0 mi SSE 8.1 mph - N/A   Clear
6:56 PM 63.1 °F 45.1 °F 52% 30.13 in 10.0 mi South 8.1 mph - N/A   Clear
7:16 PM 62.8 °F 45.3 °F 53% 30.13 in 10.0 mi South 6.9 mph - N/A   Clear
7:36 PM 62.2 °F 45.0 °F 53% 30.13 in 10.0 mi South 8.1 mph - N/A   Clear
7:56 PM 62.1 °F 45.5 °F 55% 30.13 in 10.0 mi South 5.8 mph - N/A   Clear
8:16 PM 61.7 °F 43.9 °F 52% 30.13 in 10.0 mi SSE 6.9 mph - N/A   Clear
8:36 PM 61.3 °F 42.8 °F 51% 30.12 in 10.0 mi SSE 5.8 mph - N/A   Clear
8:55 PM 60.4 °F 42.4 °F 51% 30.12 in 10.0 mi SSE 6.9 mph - N/A   Clear
9:16 PM 59.0 °F 42.1 °F 53% 30.12 in 10.0 mi SSE 5.8 mph - N/A   Clear
9:36 PM 58.1 °F 42.1 °F 55% 30.12 in 10.0 mi South 4.6 mph - N/A   Clear
9:56 PM 57.4 °F 41.7 °F 56% 30.12 in 10.0 mi SSE 5.8 mph - N/A   Clear
10:16 PM 56.8 °F 41.7 °F 57% 30.12 in 10.0 mi SSE 6.9 mph - N/A   Clear
10:36 PM 56.5 °F 42.3 °F 59% 30.13 in 10.0 mi SSE 5.8 mph - N/A   Clear
10:56 PM 56.7 °F 42.1 °F 58% 30.13 in 10.0 mi SSE 6.9 mph - N/A   Clear
11:16 PM 56.3 °F 42.1 °F 59% 30.13 in 10.0 mi SSE 6.9 mph - N/A   Clear
11:36 PM 56.3 °F 42.3 °F 59% 30.13 in 10.0 mi SSE 5.8 mph - N/A   Clear
11:56 PM 55.8 °F 42.1 °F 60% 30.13 in 10.0 mi SSE 5.8 mph - N/A   Clear